owner,sensor,date,latitude,longitude,vertical_datum,direction_of_sea_water_velocity,sea_water_speed,upward_sea_water_velocity,qcFlag 
TABS,ioos:station:wmo:42050:1,2009-12-01T00:00:00Z,28.8425,-94.2433,2.0,246.9192347,27.37088417,-99999.0,'11111222,11111222,99999999' 
TABS,ioos:station:wmo:42050:1,2009-12-01T00:30:00Z,28.8425,-94.2433,2.0,256.6673897,28.6213644,-99999.0,'11111222,11111222,99999999' 
TABS,ioos:station:wmo:42050:1,2009-12-01T01:00:00Z,28.8425,-94.2433,2.0,265.9182236,28.80304498,-99999.0,'11111222,11111222,99999999' 
TABS,ioos:station:wmo:42050:1,2009-12-01T01:30:00Z,28.8425,-94.2433,2.0,259.1816422,27.8652077,-99999.0,'11111222,11111222,99999999' 
TABS,ioos:station:wmo:42050:1,2009-12-01T02:00:00Z,28.8425,-94.2433,2.0,263.6547715,27.32738553,-99999.0,'11111222,11111222,99999999' 
TABS,ioos:station:wmo:42050:1,2009-12-01T02:30:00Z,28.8425,-94.2433,2.0,268.7928143,25.16558165,-99999.0,'11111222,11111222,99999999' 
TABS,ioos:station:wmo:42050:1,2009-12-01T03:00:00Z,28.8425,-94.2433,2.0,264.8725521,25.40163184,-99999.0,'11111222,11111222,99999999' 
TABS,ioos:station:wmo:42050:1,2009-12-01T03:30:00Z,28.8425,-94.2433,2.0,260.3517662,26.91061129,-99999.0,'11111222,11111222,99999999' 
TABS,ioos:station:wmo:42050:1,2009-12-01T04:00:00Z,28.8425,-94.2433,2.0,266.3983094,25.79092864,-99999.0,'11111222,11111222,99999999' 
TABS,ioos:station:wmo:42050:1,2009-12-01T04:30:00Z,28.8425,-94.2433,2.0,269.0891927,27.06341627,-99999.0,'11111222,11111222,99999999' 
TABS,ioos:station:wmo:42050:1,2009-12-01T05:00:00Z,28.8425,-94.2433,2.0,268.6385995,27.78783907,-99999.0,'11111222,11111222,99999999' 
TABS,ioos:station:wmo:42050:1,2009-12-01T05:30:00Z,28.8425,-94.2433,2.0,273.8065394,28.77346347,-99999.0,'11111222,11111222,99999999' 
TABS,ioos:station:wmo:42050:1,2009-12-01T06:00:00Z,28.8425,-94.2433,2.0,275.2710075,29.28381293,-99999.0,'11111222,11111222,99999999' 
TABS,ioos:station:wmo:42050:1,2009-12-01T06:30:00Z,28.8425,-94.2433,2.0,259.0644955,29.6788898,-99999.0,'11111222,11111222,99999999' 
TABS,ioos:station:wmo:42050:1,2009-12-01T07:00:00Z,28.8425,-94.2433,2.0,262.3192798,28.28372854,-99999.0,'11111222,11111222,99999999' 
TABS,ioos:station:wmo:42050:1,2009-12-01T07:30:00Z,28.8425,-94.2433,2.0,254.3378886,27.18948326,-99999.0,'11111222,11111222,99999999' 
TABS,ioos:station:wmo:42050:1,2009-12-01T08:00:00Z,28.8425,-94.2433,2.0,246.8897553,29.68185473,-99999.0,'11111222,11111222,99999999' 
TABS,ioos:station:wmo:42050:1,2009-12-01T08:30:00Z,28.8425,-94.2433,2.0,246.8283608,30.29371057,-99999.0,'11111222,11111222,99999999' 
TABS,ioos:station:wmo:42050:1,2009-12-01T09:00:00Z,28.8425,-94.2433,2.0,246.6916191,33.68935292,-99999.0,'11111222,11111222,99999999' 
TABS,ioos:station:wmo:42050:1,2009-12-01T09:30:00Z,28.8425,-94.2433,2.0,241.7230913,38.48200878,-99999.0,'11111222,11111222,99999999' 
TABS,ioos:station:wmo:42050:1,2009-12-01T10:00:00Z,28.8425,-94.2433,2.0,235.306437,37.54509022,-99999.0,'11111222,11111222,99999999' 
TABS,ioos:station:wmo:42050:1,2009-12-01T10:30:00Z,28.8425,-94.2433,2.0,234.4514379,37.89208097,-99999.0,'11111222,11111222,99999999' 
TABS,ioos:station:wmo:42050:1,2009-12-01T11:00:00Z,28.8425,-94.2433,2.0,232.8573003,41.63647079,-99999.0,'11111222,11111222,99999999' 
TABS,ioos:station:wmo:42050:1,2009-12-01T11:30:00Z,28.8425,-94.2433,2.0,238.7542618,42.9146094,-99999.0,'11111222,11111222,99999999' 
TABS,ioos:station:wmo:42050:1,2009-12-01T12:00:00Z,28.8425,-94.2433,2.0,245.0358228,43.6919409,-99999.0,'11111222,11111222,99999999' 
TABS,ioos:station:wmo:42050:1,2009-12-01T12:30:00Z,28.8425,-94.2433,2.0,249.2252995,44.5461839,-99999.0,'11111222,11111222,99999999' 
TABS,ioos:station:wmo:42050:1,2009-12-01T13:00:00Z,28.8425,-94.2433,2.0,257.5473735,42.20277361,-99999.0,'11111222,11111222,99999999' 
TABS,ioos:station:wmo:42050:1,2009-12-01T13:30:00Z,28.8425,-94.2433,2.0,259.1685318,49.27786115,-99999.0,'11111222,11111222,99999999' 
TABS,ioos:station:wmo:42050:1,2009-12-01T14:00:00Z,28.8425,-94.2433,2.0,266.1242631,45.42386267,-99999.0,'11111222,11111222,99999999' 
TABS,ioos:station:wmo:42050:1,2009-12-01T14:30:00Z,28.8425,-94.2433,2.0,271.2276355,45.29038861,-99999.0,'11111222,11111222,99999999' 
TABS,ioos:station:wmo:42050:1,2009-12-01T15:00:00Z,28.8425,-94.2433,2.0,279.6265607,50.5923512,-99999.0,'11111222,11111222,99999999' 
TABS,ioos:station:wmo:42050:1,2009-12-01T15:30:00Z,28.8425,-94.2433,2.0,288.7119369,49.12655596,-99999.0,'11111222,11111222,99999999' 
TABS,ioos:station:wmo:42050:1,2009-12-01T16:00:00Z,28.8425,-94.2433,2.0,292.2909513,46.98077586,-99999.0,'11111222,11111222,99999999' 
TABS,ioos:station:wmo:42050:1,2009-12-01T16:30:00Z,28.8425,-94.2433,2.0,291.7659353,44.52417995,-99999.0,'11111222,11111222,99999999' 
TABS,ioos:station:wmo:42050:1,2009-12-01T17:00:00Z,28.8425,-94.2433,2.0,292.8964522,44.5174404,-99999.0,'11111222,11111222,99999999' 
TABS,ioos:station:wmo:42050:1,2009-12-01T17:30:00Z,28.8425,-94.2433,2.0,291.4406965,46.26134131,-99999.0,'11111222,11111222,99999999' 
TABS,ioos:station:wmo:42050:1,2009-12-01T18:00:00Z,28.8425,-94.2433,2.0,289.2274189,45.06360061,-99999.0,'11111222,11111222,99999999' 
TABS,ioos:station:wmo:42050:1,2009-12-01T18:30:00Z,28.8425,-94.2433,2.0,293.7966746,44.80944543,-99999.0,'11111222,11111222,99999999' 
TABS,ioos:station:wmo:42050:1,2009-12-01T19:00:00Z,28.8425,-94.2433,2.0,281.779778,42.12715989,-99999.0,'11111222,11111222,99999999' 
TABS,ioos:station:wmo:42050:1,2009-12-01T19:30:00Z,28.8425,-94.2433,2.0,277.1034057,38.73729082,-99999.0,'11111222,11111222,99999999' 
TABS,ioos:station:wmo:42050:1,2009-12-01T20:00:00Z,28.8425,-94.2433,2.0,279.061837,41.5890298,-99999.0,'11111222,11111222,99999999' 
TABS,ioos:station:wmo:42050:1,2009-12-01T20:30:00Z,28.8425,-94.2433,2.0,269.8205308,38.4001875,-99999.0,'11111222,11111222,99999999' 
TABS,ioos:station:wmo:42050:1,2009-12-01T21:00:00Z,28.8425,-94.2433,2.0,260.4508603,40.32876145,-99999.0,'11111222,11111222,99999999' 
TABS,ioos:station:wmo:42050:1,2009-12-01T21:30:00Z,28.8425,-94.2433,2.0,251.9609025,34.29572131,-99999.0,'11111222,11111222,99999999' 
TABS,ioos:station:wmo:42050:1,2009-12-01T22:00:00Z,28.8425,-94.2433,2.0,260.0102769,39.14341068,-99999.0,'11111222,11111222,99999999' 
TABS,ioos:station:wmo:42050:1,2009-12-01T22:30:00Z,28.8425,-94.2433,2.0,256.1515665,38.39602193,-99999.0,'11111222,11111222,99999999' 
TABS,ioos:station:wmo:42050:1,2009-12-01T23:00:00Z,28.8425,-94.2433,2.0,248.4003466,36.3203772,-99999.0,'11111222,11111222,99999999' 
TABS,ioos:station:wmo:42050:1,2009-12-01T23:30:00Z,28.8425,-94.2433,2.0,253.546028,38.87182141,-99999.0,'11111222,11111222,99999999' 
TABS,ioos:station:wmo:42050:1,2009-12-02T00:00:00Z,28.8425,-94.2433,2.0,240.813847,39.02442568,-99999.0,'11111222,11111222,99999999' 
TABS,ioos:station:wmo:42050:1,2009-12-02T00:30:00Z,28.8425,-94.2433,2.0,246.1245931,35.92400451,-99999.0,'11111222,11111222,99999999' 
TABS,ioos:station:wmo:42050:1,2009-12-02T01:00:00Z,28.8425,-94.2433,2.0,251.2135509,35.08929181,-99999.0,'11111222,11111222,99999999' 
TABS,ioos:station:wmo:42050:1,2009-12-02T01:30:00Z,28.8425,-94.2433,2.0,246.049835,41.26265382,-99999.0,'11111222,11111222,99999999' 
TABS,ioos:station:wmo:42050:1,2009-12-02T02:00:00Z,28.8425,-94.2433,2.0,238.8403474,47.23441542,-99999.0,'11111222,11111222,99999999' 
TABS,ioos:station:wmo:42050:1,2009-12-02T02:30:00Z,28.8425,-94.2433,2.0,236.0452745,41.48369559,-99999.0,'11111222,11111222,99999999' 
TABS,ioos:station:wmo:42050:1,2009-12-02T03:00:00Z,28.8425,-94.2433,2.0,203.8789577,37.02971374,-99999.0,'11111222,11111222,99999999' 
TABS,ioos:station:wmo:42050:1,2009-12-02T03:30:00Z,28.8425,-94.2433,2.0,218.8838232,38.69390779,-99999.0,'11111222,11111222,99999999' 
TABS,ioos:station:wmo:42050:1,2009-12-02T04:00:00Z,28.8425,-94.2433,2.0,225.0956074,54.90691851,-99999.0,'11111222,11111222,99999999' 
TABS,ioos:station:wmo:42050:1,2009-12-02T04:30:00Z,28.8425,-94.2433,2.0,218.6782671,52.46813986,-99999.0,'11111222,11111222,99999999' 
TABS,ioos:station:wmo:42050:1,2009-12-02T05:00:00Z,28.8425,-94.2433,2.0,222.0591677,57.75474439,-99999.0,'11111222,11111222,99999999' 
TABS,ioos:station:wmo:42050:1,2009-12-02T05:30:00Z,28.8425,-94.2433,2.0,239.9821945,36.24087885,-99999.0,'11111222,11111222,99999999' 
TABS,ioos:station:wmo:42050:1,2009-12-02T06:00:00Z,28.8425,-94.2433,2.0,243.306998,38.15635858,-99999.0,'11111222,11111222,99999999' 
TABS,ioos:station:wmo:42050:1,2009-12-02T06:30:00Z,28.8425,-94.2433,2.0,251.3646395,31.70202675,-99999.0,'11111222,11111222,99999999' 
TABS,ioos:station:wmo:42050:1,2009-12-02T07:00:00Z,28.8425,-94.2433,2.0,235.091034,32.08279445,-99999.0,'11111222,11111222,99999999' 
TABS,ioos:station:wmo:42050:1,2009-12-02T07:30:00Z,28.8425,-94.2433,2.0,241.4692461,28.55797087,-99999.0,'11111222,11111222,99999999' 
TABS,ioos:station:wmo:42050:1,2009-12-02T08:00:00Z,28.8425,-94.2433,2.0,227.5570286,30.11031053,-99999.0,'11111222,11111222,99999999' 
TABS,ioos:station:wmo:42050:1,2009-12-02T08:30:00Z,28.8425,-94.2433,2.0,234.0042979,30.26952593,-99999.0,'11111222,11111222,99999999' 
TABS,ioos:station:wmo:42050:1,2009-12-02T09:00:00Z,28.8425,-94.2433,2.0,234.2903574,33.37484682,-99999.0,'11111222,11111222,99999999' 
TABS,ioos:station:wmo:42050:1,2009-12-02T09:30:00Z,28.8425,-94.2433,2.0,224.5526226,34.43714855,-99999.0,'11111222,11111222,99999999' 
TABS,ioos:station:wmo:42050:1,2009-12-02T10:00:00Z,28.8425,-94.2433,2.0,217.9157389,28.15269259,-99999.0,'11111222,11111222,99999999' 
TABS,ioos:station:wmo:42050:1,2009-12-02T10:30:00Z,28.8425,-94.2433,2.0,216.159173,27.74413271,-99999.0,'11111222,11111222,99999999' 
TABS,ioos:station:wmo:42050:1,2009-12-02T11:00:00Z,28.8425,-94.2433,2.0,218.9400692,28.06632324,-99999.0,'11111222,11111222,99999999' 
TABS,ioos:station:wmo:42050:1,2009-12-02T11:30:00Z,28.8425,-94.2433,2.0,216.1954363,31.27616505,-99999.0,'11111222,11111222,99999999' 
TABS,ioos:station:wmo:42050:1,2009-12-02T12:00:00Z,28.8425,-94.2433,2.0,224.4542358,37.13893106,-99999.0,'11111222,11111222,99999999' 
TABS,ioos:station:wmo:42050:1,2009-12-02T12:30:00Z,28.8425,-94.2433,2.0,226.5936306,32.03018888,-99999.0,'11111222,11111222,99999999' 
TABS,ioos:station:wmo:42050:1,2009-12-02T13:00:00Z,28.8425,-94.2433,2.0,226.7764126,36.49011099,-99999.0,'11111222,11111222,99999999' 
TABS,ioos:station:wmo:42050:1,2009-12-02T13:30:00Z,28.8425,-94.2433,2.0,227.9090675,28.41989796,-99999.0,'11111222,11111222,99999999' 
TABS,ioos:station:wmo:42050:1,2009-12-02T14:00:00Z,28.8425,-94.2433,2.0,223.5005934,28.11004447,-99999.0,'11111222,11111222,99999999' 
TABS,ioos:station:wmo:42050:1,2009-12-02T14:30:00Z,28.8425,-94.2433,2.0,214.1096183,23.46722182,-99999.0,'11111222,11111222,99999999' 
TABS,ioos:station:wmo:42050:1,2009-12-02T15:00:00Z,28.8425,-94.2433,2.0,203.0941176,15.88285239,-99999.0,'11111222,11111222,99999999' 
TABS,ioos:station:wmo:42050:1,2009-12-02T15:30:00Z,28.8425,-94.2433,2.0,181.6510985,11.10461165,-99999.0,'11111222,11111222,99999999' 
TABS,ioos:station:wmo:42050:1,2009-12-02T16:00:00Z,28.8425,-94.2433,2.0,148.3118111,10.71780295,-99999.0,'11111222,11111222,99999999' 
TABS,ioos:station:wmo:42050:1,2009-12-02T16:30:00Z,28.8425,-94.2433,2.0,180.7343089,5.4604487,-99999.0,'11133222,11111222,99999999' 
TABS,ioos:station:wmo:42050:1,2009-12-02T17:00:00Z,28.8425,-94.2433,2.0,175.449519,2.899137803,-99999.0,'11133222,11111222,99999999' 
TABS,ioos:station:wmo:42050:1,2009-12-02T17:30:00Z,28.8425,-94.2433,2.0,25.22780093,3.448956364,-99999.0,'11133222,11111222,99999999' 
TABS,ioos:station:wmo:42050:1,2009-12-02T18:00:00Z,28.8425,-94.2433,2.0,42.98999681,12.70038188,-99999.0,'11111222,11111222,99999999' 
TABS,ioos:station:wmo:42050:1,2009-12-02T18:30:00Z,28.8425,-94.2433,2.0,50.29388424,22.14913317,-99999.0,'11111222,11111222,99999999' 
TABS,ioos:station:wmo:42050:1,2009-12-02T19:00:00Z,28.8425,-94.2433,2.0,78.32867205,23.62854206,-99999.0,'11111222,11111222,99999999' 
TABS,ioos:station:wmo:42050:1,2009-12-02T19:30:00Z,28.8425,-94.2433,2.0,89.51370604,25.92093363,-99999.0,'11111222,11111222,99999999' 
TABS,ioos:station:wmo:42050:1,2009-12-02T20:00:00Z,28.8425,-94.2433,2.0,58.97382746,31.44942925,-99999.0,'11111222,11111222,99999999' 
TABS,ioos:station:wmo:42050:1,2009-12-02T20:30:00Z,28.8425,-94.2433,2.0,63.07790974,32.28944874,-99999.0,'11111222,11111222,99999999' 
TABS,ioos:station:wmo:42050:1,2009-12-02T21:00:00Z,28.8425,-94.2433,2.0,84.44638116,35.95878891,-99999.0,'11111222,11111222,99999999' 
TABS,ioos:station:wmo:42050:1,2009-12-02T21:30:00Z,28.8425,-94.2433,2.0,96.72446526,38.85731077,-99999.0,'11111222,11111222,99999999' 
TABS,ioos:station:wmo:42050:1,2009-12-02T22:00:00Z,28.8425,-94.2433,2.0,102.2000534,39.13381402,-99999.0,'11111222,11111222,99999999' 
TABS,ioos:station:wmo:42050:1,2009-12-02T22:30:00Z,28.8425,-94.2433,2.0,111.3168799,39.74950817,-99999.0,'11111222,11111222,99999999' 
TABS,ioos:station:wmo:42050:1,2009-12-02T23:00:00Z,28.8425,-94.2433,2.0,114.9938518,45.18108675,-99999.0,'11111222,11111222,99999999' 
TABS,ioos:station:wmo:42050:1,2009-12-02T23:30:00Z,28.8425,-94.2433,2.0,109.4001904,47.11513663,-99999.0,'11111222,11111222,99999999' 
TABS,ioos:station:wmo:42050:1,2009-12-03T00:00:00Z,28.8425,-94.2433,2.0,114.2276887,46.27591274,-99999.0,'11111222,11111222,99999999' 
TABS,ioos:station:wmo:42050:1,2009-12-03T00:30:00Z,28.8425,-94.2433,2.0,115.686451,44.04230012,-99999.0,'11111222,11111222,99999999' 
TABS,ioos:station:wmo:42050:1,2009-12-03T01:00:00Z,28.8425,-94.2433,2.0,115.8954544,40.18488522,-99999.0,'11111222,11111222,99999999' 
TABS,ioos:station:wmo:42050:1,2009-12-03T01:30:00Z,28.8425,-94.2433,2.0,111.8404032,43.59941857,-99999.0,'11111222,11111222,99999999' 
TABS,ioos:station:wmo:42050:1,2009-12-03T02:00:00Z,28.8425,-94.2433,2.0,114.5738585,44.1487497,-99999.0,'11111222,11111222,99999999' 
TABS,ioos:station:wmo:42050:1,2009-12-03T02:30:00Z,28.8425,-94.2433,2.0,118.382534,43.14651434,-99999.0,'11111222,11111222,99999999' 
TABS,ioos:station:wmo:42050:1,2009-12-03T03:00:00Z,28.8425,-94.2433,2.0,112.3723399,40.24960621,-99999.0,'11111222,11111222,99999999' 
TABS,ioos:station:wmo:42050:1,2009-12-03T03:30:00Z,28.8425,-94.2433,2.0,112.2804855,41.30380128,-99999.0,'11111222,11111222,99999999' 
TABS,ioos:station:wmo:42050:1,2009-12-03T04:00:00Z,28.8425,-94.2433,2.0,114.6484367,42.65673452,-99999.0,'11111222,11111222,99999999' 
TABS,ioos:station:wmo:42050:1,2009-12-03T04:30:00Z,28.8425,-94.2433,2.0,109.0012704,43.82814735,-99999.0,'11111222,11111222,99999999' 
TABS,ioos:station:wmo:42050:1,2009-12-03T05:00:00Z,28.8425,-94.2433,2.0,104.7272251,33.98656352,-99999.0,'11111222,11111222,99999999' 
TABS,ioos:station:wmo:42050:1,2009-12-03T05:30:00Z,28.8425,-94.2433,2.0,102.0838351,36.73394207,-99999.0,'11111222,11111222,99999999' 
TABS,ioos:station:wmo:42050:1,2009-12-03T06:00:00Z,28.8425,-94.2433,2.0,102.4267334,34.71326692,-99999.0,'11111222,11111222,99999999' 
TABS,ioos:station:wmo:42050:1,2009-12-03T06:30:00Z,28.8425,-94.2433,2.0,105.660187,35.60155193,-99999.0,'11111222,11111222,99999999' 
TABS,ioos:station:wmo:42050:1,2009-12-03T07:00:00Z,28.8425,-94.2433,2.0,101.9062071,36.93459083,-99999.0,'11111222,11111222,99999999' 
TABS,ioos:station:wmo:42050:1,2009-12-03T07:30:00Z,28.8425,-94.2433,2.0,109.0934474,34.94231389,-99999.0,'11111222,11111222,99999999' 
TABS,ioos:station:wmo:42050:1,2009-12-03T08:00:00Z,28.8425,-94.2433,2.0,110.7564309,32.7881076,-99999.0,'11111222,11111222,99999999' 
TABS,ioos:station:wmo:42050:1,2009-12-03T08:30:00Z,28.8425,-94.2433,2.0,117.9697778,27.91004479,-99999.0,'11111222,11111222,99999999' 
TABS,ioos:station:wmo:42050:1,2009-12-03T09:00:00Z,28.8425,-94.2433,2.0,123.0824583,28.24969557,-99999.0,'11111222,11111222,99999999' 
TABS,ioos:station:wmo:42050:1,2009-12-03T09:30:00Z,28.8425,-94.2433,2.0,124.3921526,25.12148483,-99999.0,'11111222,11111222,99999999' 
TABS,ioos:station:wmo:42050:1,2009-12-03T10:00:00Z,28.8425,-94.2433,2.0,135.6599166,25.1676002,-99999.0,'11111222,11111222,99999999' 
TABS,ioos:station:wmo:42050:1,2009-12-03T10:30:00Z,28.8425,-94.2433,2.0,143.9754603,28.46309892,-99999.0,'11111222,11111222,99999999' 
TABS,ioos:station:wmo:42050:1,2009-12-03T11:00:00Z,28.8425,-94.2433,2.0,150.5920499,29.30619388,-99999.0,'11111222,11111222,99999999' 
TABS,ioos:station:wmo:42050:1,2009-12-03T11:30:00Z,28.8425,-94.2433,2.0,154.9465749,29.49505891,-99999.0,'11111222,11111222,99999999' 
TABS,ioos:station:wmo:42050:1,2009-12-03T12:00:00Z,28.8425,-94.2433,2.0,158.5283578,31.28089832,-99999.0,'11111222,11111222,99999999' 
TABS,ioos:station:wmo:42050:1,2009-12-03T12:30:00Z,28.8425,-94.2433,2.0,158.7168386,26.47566807,-99999.0,'11111222,11111222,99999999' 
TABS,ioos:station:wmo:42050:1,2009-12-03T13:00:00Z,28.8425,-94.2433,2.0,171.8510815,26.10355531,-99999.0,'11111222,11111222,99999999' 
TABS,ioos:station:wmo:42050:1,2009-12-03T13:30:00Z,28.8425,-94.2433,2.0,176.1056899,22.38167331,-99999.0,'11111222,11111222,99999999' 
TABS,ioos:station:wmo:42050:1,2009-12-03T14:00:00Z,28.8425,-94.2433,2.0,185.0722557,19.56662976,-99999.0,'11111222,11111222,99999999' 
TABS,ioos:station:wmo:42050:1,2009-12-03T14:30:00Z,28.8425,-94.2433,2.0,189.8466671,12.98123646,-99999.0,'11111222,11111222,99999999' 
TABS,ioos:station:wmo:42050:1,2009-12-03T15:00:00Z,28.8425,-94.2433,2.0,182.7752572,10.53235491,-99999.0,'11111222,11111222,99999999' 
TABS,ioos:station:wmo:42050:1,2009-12-03T15:30:00Z,28.8425,-94.2433,2.0,207.3477523,9.490758663,-99999.0,'11133222,11111222,99999999' 
TABS,ioos:station:wmo:42050:1,2009-12-03T16:00:00Z,28.8425,-94.2433,2.0,223.459097,5.786225022,-99999.0,'11133222,11111222,99999999' 
TABS,ioos:station:wmo:42050:1,2009-12-03T16:30:00Z,28.8425,-94.2433,2.0,279.6484437,5.071735403,-99999.0,'11133222,11111222,99999999' 
TABS,ioos:station:wmo:42050:1,2009-12-03T17:00:00Z,28.8425,-94.2433,2.0,333.6458662,6.082146003,-99999.0,'11133222,11111222,99999999' 
TABS,ioos:station:wmo:42050:1,2009-12-03T17:30:00Z,28.8425,-94.2433,2.0,341.5117741,10.154078,-99999.0,'11111222,11111222,99999999' 
TABS,ioos:station:wmo:42050:1,2009-12-03T18:00:00Z,28.8425,-94.2433,2.0,352.19151,11.84988186,-99999.0,'11111222,11111222,99999999' 
TABS,ioos:station:wmo:42050:1,2009-12-03T18:30:00Z,28.8425,-94.2433,2.0,343.8634569,11.51362671,-99999.0,'11111222,11111222,99999999' 
TABS,ioos:station:wmo:42050:1,2009-12-03T19:00:00Z,28.8425,-94.2433,2.0,339.4171769,12.40168134,-99999.0,'11111222,11111222,99999999' 
TABS,ioos:station:wmo:42050:1,2009-12-03T19:30:00Z,28.8425,-94.2433,2.0,354.4200702,12.23799412,-99999.0,'11111222,11111222,99999999' 
TABS,ioos:station:wmo:42050:1,2009-12-03T20:00:00Z,28.8425,-94.2433,2.0,10.55455605,12.93890645,-99999.0,'11111222,11111222,99999999' 
TABS,ioos:station:wmo:42050:1,2009-12-03T20:30:00Z,28.8425,-94.2433,2.0,9.923430938,9.400638276,-99999.0,'11133222,11111222,99999999' 
TABS,ioos:station:wmo:42050:1,2009-12-03T21:00:00Z,28.8425,-94.2433,2.0,9.554477789,9.217863093,-99999.0,'11133222,11111222,99999999' 
TABS,ioos:station:wmo:42050:1,2009-12-03T21:30:00Z,28.8425,-94.2433,2.0,20.64486999,6.807121271,-99999.0,'11133222,11111222,99999999' 
TABS,ioos:station:wmo:42050:1,2009-12-03T22:00:00Z,28.8425,-94.2433,2.0,35.04100115,5.76493712,-99999.0,'11133222,11111222,99999999' 
TABS,ioos:station:wmo:42050:1,2009-12-03T22:30:00Z,28.8425,-94.2433,2.0,57.03067319,4.410215414,-99999.0,'11133222,11111222,99999999' 
TABS,ioos:station:wmo:42050:1,2009-12-03T23:00:00Z,28.8425,-94.2433,2.0,109.5448166,4.244573006,-99999.0,'11133222,11111222,99999999' 
TABS,ioos:station:wmo:42050:1,2009-12-03T23:30:00Z,28.8425,-94.2433,2.0,105.678271,7.956010307,-99999.0,'11133222,11111222,99999999' 
TABS,ioos:station:wmo:42050:1,2009-12-04T00:00:00Z,28.8425,-94.2433,2.0,150.8190517,6.173507917,-99999.0,'11133222,11111222,99999999' 
TABS,ioos:station:wmo:42050:1,2009-12-04T00:30:00Z,28.8425,-94.2433,2.0,131.6781842,7.444199084,-99999.0,'11133222,11111222,99999999' 
TABS,ioos:station:wmo:42050:1,2009-12-04T01:00:00Z,28.8425,-94.2433,2.0,147.9031492,7.979674179,-99999.0,'11133222,11111222,99999999' 
TABS,ioos:station:wmo:42050:1,2009-12-04T01:30:00Z,28.8425,-94.2433,2.0,154.3949728,8.00624756,-99999.0,'11133222,11111222,99999999' 
TABS,ioos:station:wmo:42050:1,2009-12-04T02:00:00Z,28.8425,-94.2433,2.0,124.6492105,10.27171359,-99999.0,'11111222,11111222,99999999' 
TABS,ioos:station:wmo:42050:1,2009-12-04T02:30:00Z,28.8425,-94.2433,2.0,127.4026206,10.10843707,-99999.0,'11111222,11111222,99999999' 
TABS,ioos:station:wmo:42050:1,2009-12-04T03:00:00Z,28.8425,-94.2433,2.0,122.7351497,5.492294602,-99999.0,'11133222,11111222,99999999' 
TABS,ioos:station:wmo:42050:1,2009-12-04T03:30:00Z,28.8425,-94.2433,2.0,118.2373795,6.129437168,-99999.0,'11133222,11111222,99999999' 
TABS,ioos:station:wmo:42050:1,2009-12-04T04:00:00Z,28.8425,-94.2433,2.0,98.9278706,5.992603775,-99999.0,'11133222,11111222,99999999' 
TABS,ioos:station:wmo:42050:1,2009-12-04T04:30:00Z,28.8425,-94.2433,2.0,84.56404175,6.228009313,-99999.0,'11133222,11111222,99999999' 
TABS,ioos:station:wmo:42050:1,2009-12-04T05:00:00Z,28.8425,-94.2433,2.0,89.73877546,6.580068389,-99999.0,'11133222,11111222,99999999' 
TABS,ioos:station:wmo:42050:1,2009-12-04T05:30:00Z,28.8425,-94.2433,2.0,95.05319246,6.244269373,-99999.0,'11133222,11111222,99999999' 
TABS,ioos:station:wmo:42050:1,2009-12-04T06:00:00Z,28.8425,-94.2433,2.0,106.0073669,6.346061771,-99999.0,'11133222,11111222,99999999' 
TABS,ioos:station:wmo:42050:1,2009-12-04T06:30:00Z,28.8425,-94.2433,2.0,110.1606513,4.410215414,-99999.0,'11133222,11111222,99999999' 
TABS,ioos:station:wmo:42050:1,2009-12-04T07:00:00Z,28.8425,-94.2433,2.0,133.3059937,6.458707301,-99999.0,'11133222,11111222,99999999' 
TABS,ioos:station:wmo:42050:1,2009-12-04T07:30:00Z,28.8425,-94.2433,2.0,161.5954741,5.922946902,-99999.0,'11133222,11111222,99999999' 
TABS,ioos:station:wmo:42050:1,2009-12-04T08:00:00Z,28.8425,-94.2433,2.0,168.6171733,9.272378336,-99999.0,'11133222,11111222,99999999' 
TABS,ioos:station:wmo:42050:1,2009-12-04T08:30:00Z,28.8425,-94.2433,2.0,165.1794721,10.63375757,-99999.0,'11111222,11111222,99999999' 
TABS,ioos:station:wmo:42050:1,2009-12-04T09:00:00Z,28.8425,-94.2433,2.0,198.7227485,13.20900072,-99999.0,'11111222,11111222,99999999' 
TABS,ioos:station:wmo:42050:1,2009-12-04T09:30:00Z,28.8425,-94.2433,2.0,201.025349,17.28053529,-99999.0,'11111222,11111222,99999999' 
TABS,ioos:station:wmo:42050:1,2009-12-04T10:00:00Z,28.8425,-94.2433,2.0,211.0610811,17.11386865,-99999.0,'11111222,11111222,99999999' 
TABS,ioos:station:wmo:42050:1,2009-12-04T10:30:00Z,28.8425,-94.2433,2.0,202.2273061,22.46975745,-99999.0,'11111222,11111222,99999999' 
TABS,ioos:station:wmo:42050:1,2009-12-04T11:00:00Z,28.8425,-94.2433,2.0,207.9362155,23.54359573,-99999.0,'11111222,11111222,99999999' 
TABS,ioos:station:wmo:42050:1,2009-12-04T11:30:00Z,28.8425,-94.2433,2.0,207.5286824,26.85003166,-99999.0,'11111222,11111222,99999999' 
TABS,ioos:station:wmo:42050:1,2009-12-04T12:00:00Z,28.8425,-94.2433,2.0,223.8900124,30.30520912,-99999.0,'11111222,11111222,99999999' 
TABS,ioos:station:wmo:42050:1,2009-12-04T12:30:00Z,28.8425,-94.2433,2.0,228.0176631,32.77035245,-99999.0,'11111222,11111222,99999999' 
TABS,ioos:station:wmo:42050:1,2009-12-04T13:00:00Z,28.8425,-94.2433,2.0,234.3180981,34.71746679,-99999.0,'11111222,11111222,99999999' 
TABS,ioos:station:wmo:42050:1,2009-12-04T13:30:00Z,28.8425,-94.2433,2.0,231.0437623,33.24202912,-99999.0,'11111222,11111222,99999999' 
TABS,ioos:station:wmo:42050:1,2009-12-04T14:00:00Z,28.8425,-94.2433,2.0,234.1504027,33.34729074,-99999.0,'11111222,11111222,99999999' 
TABS,ioos:station:wmo:42050:1,2009-12-04T14:30:00Z,28.8425,-94.2433,2.0,237.2901773,32.08855871,-99999.0,'11111222,11111222,99999999' 
TABS,ioos:station:wmo:42050:1,2009-12-04T15:00:00Z,28.8425,-94.2433,2.0,234.7475701,35.91631663,-99999.0,'11111222,11111222,99999999' 
TABS,ioos:station:wmo:42050:1,2009-12-04T15:30:00Z,28.8425,-94.2433,2.0,241.8850603,35.2264801,-99999.0,'11111222,11111222,99999999' 
TABS,ioos:station:wmo:42050:1,2009-12-04T16:00:00Z,28.8425,-94.2433,2.0,248.423405,37.79857802,-99999.0,'11111222,11111222,99999999' 